User: anonymous   Login
Location: Elstree
(51.6403°N, 0.2969°W)
Time: 23:34:16
(UTC+00:00)
Language:

Envisat - Orbit

View from above orbital plane
View from above orbital plane
View from above satellite
View from above satellite

Ground track
Ground track

The orbit data is extracted from the following two-line orbital elements,

1 27386U 02009A   24105.86780595  .00000288  00000-0  10807-3 0  9994
2 27386  98.2767  69.1788 0001257  82.0483 331.8038 14.38538589159472
Epoch (UTC): 14 April 2024 20:49:38
Eccentricity: 0.0001257
inclination: 98.2767°
perigee height: 762 km
apogee height: 764 km
right ascension of ascending node: 69.1788°
argument of perigee: 82.0483°
revolutions per day: 14.38538589
mean anomaly at epoch: 331.8038°
orbit number at epoch: 15947

The dashed part of the orbit path shows where the satellite is in the earth's shadow,  

DLR